sat.trackr.live / text

‹ back to catalog

STARLINK-4786

NORAD 55393 · 2023-014C

PAYLOAD ACTIVE UNKNOWN

§ Identity

Operator
Country
US
Launch date
2023-01-31
Launch site
AFWTR
Launch vehicle
Mass (kg)
RCS (m²)

Purposes: comms

External: N2YO · Heavens-Above · Gunter

§ Orbital elements

Epoch: 2026-09-20T11:09:11.872800Z

Period
96.11 min
Inclination
69.9975°
Eccentricity
0.0003616
Mean motion
14.98331661 rev/d
Perigee alt
569.5 km
Apogee alt
574.6 km
Semi-major
6,950.2 km
B*
-6.4982e-6
RAAN
293.2582°
Arg perigee
270.0353°
Mean anomaly
90.0391°
Rev number
20,123

§ Raw data

STARLINK-47861 55393U 23014C   26263.46472075 -.00000171  00000+0 -64982-5 0  99932 55393  69.9975 293.2582 0003616 270.0353  90.0391 14.98331661201231

JSON: /api/v1/satellites/55393 · /tle

For live sub-satellite position, see the globe view (requires WebGL).

§ Visibility from observer

Set your observer location to see the next 7 days of passes ≥ 10°. The values pass through the URL so the page stays shareable.

No JS? Fill the form by hand. The geolocation button needs JavaScript.